Voltar ao catálogo

FENGYUN 1C DEB

AtivoSSO
NORAD 30675·DEBRIS·🇨🇳 China

Lançado May 10, 1999 de Taiyuan Satellite Launch Center

Loading…

Próximas Passagens (próximas 24 horas)

TLE

AtualizadoSource: Space-Track

Época: Sep 14, 2026, 04:31 UTC

1 30675U 99025AQH 26257.18866329  .00001979  00000-0  78548-3 0  9992
2 30675  98.7436 341.9170 0052079  85.8169 304.8442 14.29161419  8220

Acompanhe FENGYUN 1C DEB em tempo real com AllMySat

Download on the App Store